www.pogodaiklimat.ru

Погода и климат >> Архив погоды >> Россия >> Красноярский край >> Советская Речка


ПОГОДА в Советской Речке

  • Прогноз погоды в Советской Речке
  • Монитор погоды в Советской Речке

АРХИВ ПОГОДЫ в Советской Речке

Время (UTC), дата Ветер
(напр.,м/с)
 
Видим.   Явления Облачность Т
(С)
Тd
(С)
f
(%)
Тe
(С)
Тes
(С)
Комфортность P
(гПа)
Po
(гПа)
Тmin
(С)
Tmax
(С)
R
(мм)
R24
(мм)
S
(см)
21 18.08 СВ 2 н/о слаб. ливневой дождь 10 баллов +14.0 +13.5 97 +13 +13 1016.1 1010.7
00 19.08 СВ 1 10 км слаб. ливневой дождь 10/10 600 м
[Cb cap]
+13.8 +12.5 92 +14 +14 1016.0 1010.6 +13.8 3
03 19.08 С 2 20 км 10 баллов +13.9 +12.1 89 +13 +13 1017.4 1012.0 +13.6
06 19.08 СВ 2 20 км 10 баллов +15.5 +13.2 86 +15 +15 1018.7 1013.3
09 19.08 СВ 3 20 км 7 баллов +19.2 +14.9 76 +21 +22 комфорт 1018.6 1013.3
12 19.08 СВ 4 10 км дым 8/0
[Cs]
+19.2 +14.4 74 +21 +21 комфорт 1018.4 1013.1 +20.1 0.5
15 19.08 СВ 2 20 км 7 баллов +16.2 +13.1 82 +16 +16 1021.4 1016.0
18 19.08 СВ 1 н/о 7 баллов +14.1 +12.7 91 +14 +14 1021.4 1016.0
21 19.08 СВ 2 н/о 10 баллов +13.2 +12.1 93 +12 +12 1022.8 1017.3
00 20.08 СВ 2 20 км 10/0
[Cs]
+12.8 +11.7 93 +12 +12 1022.0 1016.6 +12.8
03 20.08 СВ 3 10 км дым 10 баллов +13.8 +11.7 87 +13 +13 1024.2 1018.7
06 20.08 СВ 3 10 км дым 9 баллов +14.2 +12.1 87 +13 +14 1024.1 1018.7
09 20.08 СВ 2 10 км дым 9 баллов +17.4 +12.7 74 +18 +18 1024.1 1018.7
12 20.08 С 2 10 км дым 8/0
[Ci fib]
+16.8 +12.9 78 +17 +18 1023.0 1017.6 +17.4
15 20.08 С 1 20 км 7 баллов +13.6 +11.3 86 +14 +14 1024.2 1018.7
18 20.08 С 1 н/о 7 баллов +11.6 +10.3 92 +11 +11 1024.2 1018.7
21 20.08 штиль 0 н/о туман поземный 10 баллов +11.0 +10.5 97 +10 +10 1024.2 1018.7
00 21.08 С 1 20 км туман поземный 10/10 600 м
[Sc]
+12.1 +11.7 97 +12 +12 1022.3 1016.8 +10.2
03 21.08 В 1 20 км туман поземный 10 баллов +12.2 +11.6 96 +12 +12 1022.8 1017.3
09 21.08 СВ 2 20 км 2 балла +22.4 +12.9 55 +25 +29 комфорт 1021.3 1016.0
12 21.08 В 1 20 км 6/0
[Ci fib]
+23.6 +12.5 50 +26 +27 жарко 1019.4 1014.2 +23.6
15 21.08 штиль 0 20 км туман поземный 4 балла +17.6 +15.2 86 +18 +18 1020.1 1014.7
18 21.08 штиль 0 н/о туман поземный 4 балла +10.0 +8.8 92 +9 +9 1020.2 1014.7
21 21.08 штиль 0 н/о туман поземный ясно +6.8 +5.9 94 +6 +6 1018.9 1013.3
00 22.08 штиль 0 500 м туман 3/0
[Ci fib]
+5.9 +5.2 95 +5 +5 1017.5 1011.9 +5.0
03 22.08 штиль 0 20 км 2 балла +16.4 +13.9 85 +16 +20 1017.4 1012.0
06 22.08 штиль 0 20 км 2 балла +22.8 +10.9 47 +25 +32 комфорт 1015.9 1010.7
09 22.08 З 2 20 км 6 баллов +24.6 +9.3 38 +25 +27 комфорт 1014.5 1009.3
12 22.08 З 1 20 км 8/4 600 м
[Cb cap Ac trans]
+23.6 +9.7 41 +25 +25 комфорт 1013.2 1008.0 +25.2
15 22.08 З 1 20 км 7 баллов +17.4 +15.4 88 +18 +18 1013.3 1008.0
18 22.08 штиль 0 н/о туман поземный 7 баллов +11.2 +9.9 92 +10 +10 1013.4 1008.0
21 22.08 штиль 0 н/о туман поземный 6 баллов +7.0 +5.6 91 +6 +6 1012.2 1006.7
00 23.08 штиль 0 20 км 6/0 2000 м
[Ac trans Ci fib]
+6.1 +4.5 89 +5 +5 1011.4 1005.8 +5.4
03 23.08 штиль 0 20 км 4 балла +15.7 +12.8 83 +15 +18 1012.0 1006.7
06 23.08 ЮЗ 2 20 км 6 баллов +21.2 +14.1 64 +24 +27 комфорт 1010.5 1005.3
09 23.08 ЮЗ 4 20 км 4 балла +22.2 +10.3 47 +24 +26 комфорт 1010.5 1005.3
12 23.08 ЮЗ 1 20 км 3/0
[Ci fib]
+21.2 +10.9 52 +23 +24 комфорт 1008.4 1003.2 +24.6
15 23.08 штиль 0 20 км 7 баллов +14.0 +11.5 85 +14 +14 1009.4 1004.0
18 23.08 В 1 н/о 7 баллов +11.4 +10.5 94 +11 +11 1009.4 1004.0
21 23.08 штиль 0 н/о 9 баллов +10.4 +9.8 96 +10 +10 1008.1 1002.7
00 24.08 ЮВ 1 20 км {ливн. осадки} 8/6 600 м
[Cb cap Ci fib]
+10.2 +9.6 96 +10 +10 1006.6 1001.2 +8.2 0.0
03 24.08 ЮВ 1 20 км 9 баллов +15.4 +12.3 82 +16 +16 1006.6 1001.3
06 24.08 Ю 4 20 км 10 баллов +19.8 +12.1 61 +21 +21 комфорт 1006.5 1001.3
09 24.08 Ю 5 20 км 10 баллов +20.6 +12.8 61 +23 +23 комфорт 1005.2 1000.0
12 24.08 ЮВ 2 10 км дым 10/6 600 м
[Sc Ac und]
+19.0 +13.6 71 +21 +21 комфорт 1003.4 998.2 +23.1 0.0
15 24.08 ЮВ 2 10 км слаб. дождь 10 баллов +13.8 +12.5 92 +13 +13 1004.0 998.7
18 24.08 В 2 н/о 10 баллов +13.4 +12.5 94 +13 +13 1002.6 997.3
21 24.08 В 2 н/о 10 баллов +12.6 +11.7 94 +12 +12 1001.4 996.0
00 25.08 ЮВ 1 20 км 10/10 600 м
[Sc]
+14.0 +12.5 91 +14 +14 1000.4 995.1 +12.6 0.6
03 25.08 Ю 2 20 км 10 баллов +14.8 +13.0 89 +14 +14 1001.3 996.0
06 25.08 Ю 2 20 км 9 баллов +16.8 +11.7 72 +17 +18 1001.3 996.0
09 25.08 ЮВ 2 20 км 9 баллов +18.2 +12.2 68 +19 +19 1001.2 996.0
12 25.08 ЮЗ 1 20 км в посл. час ливневой дождь 9/6 600 м
[Cb cap Ci fib]
+14.5 +13.2 92 +15 +15 1000.9 995.6 +18.6 7
15 25.08 штиль 0 20 км туман поземный 7 баллов +13.4 +12.8 96 +13 +13 1002.6 997.3
18 25.08 ЮВ 1 н/о 10 баллов +11.8 +11.0 95 +12 +12 1001.4 996.0

 

Местоположение метеостанции Советская Речка (Красноярский край, Россия): широта 66.82 долгота 83.80 высота над уровнем моря 45 м.

В архиве по умолчанию представлена погода в Советской Речке за последнюю неделю. Архивные данные за месяц целиком и за предыдущие месяцы, начиная с января 2011 года, Вы можете получить, выбрав интересующий диапазон дат из раскрывающегося списка и нажав кнопку "Ввод!".


*Определитесь, кто Вы:
робот инопланетянин человек

Внимание! Время в таблицах - всемирное. Для получения местного времени необходимо прибавить поправку, которая равна 7 ч.

Смотрите также архив погоды в соседних городах и на ближайших метеорологических станциях:

Погода в Красноселькупске (Ямало-Ненецкий АО, Россия) (138 км)
Погода в Игарке (Красноярский край, Россия) (140 км)
Погода в Курейке (Красноярский край, Россия) (156 км)
Погода в Горбиачине (Красноярский край, Россия) (189 км)
Погода в Светлогорске (Красноярский край, Россия) (202 км)
Погода в Туруханске (Красноярский край, Россия) (218 км)
Погода в Снежногорске (Красноярский край, Россия) (221 км)
Погода в Потапово (Красноярский край, Россия) (230 км)
Погода в Тазовском (Ямало-Ненецкий АО, Россия) (231 км)
Погода в Уренгое (Ямало-Ненецкий АО, Россия) (259 км)

Пояснения к столбцам:

Ветер - указаны скорость ветра в м/с - средняя за 10 мин, порывы в срок и между сроками (в фигурных скобках) и направление, откуда дует ветер: С - северный, СВ - северо-восточный, В - восточный, ЮВ - юго-восточный, Ю - южный, ЮЗ - юго-западный, З - западный, СЗ - северо-западный.
Видимость - горизонтальная дальность видимости в метрах или километрах. При видимости от 1 до 10 км при отсутствии осадков обычно наблюдается дымка, при ухудшении видимости до 1 км и менее - туман. В сухую погоду видимость может ухудшаться дымом, пылью или мглою.
Явления - указаны атмосферные явления, наблюдавшиеся в срок или в последний час перед сроком; фигурными скобками обозначены явления, наблюдавшиеся между сроками (за 1-3 часа до срока); квадратными скобками обозначены град или гололедные отложения с указанием их диаметра в мм.
Облачность - указаны через наклонную черту общая и нижняя облачность в баллах и высота нижней границы облаков в метрах; квадратными скобками обозначены формы облаков: Ci - перистые, Cs - перисто-слоистые, Cc - перисто-кучевые, Ac - высококучевые, As - высокослоистые, Sc - слоисто-кучевые, Ns - слоисто-дождевые, Cu - кучевые, Cb - кучево-дождевые. Подробнее классификацию облаков см. в Атласе облаков (PDF).
T - Температура воздуха - температура, измеренная на высоте 2 м над землей.
Td - Температура точки росы - температура, при понижении до которой содержащийся в воздухе водяной пар достигнет насыщения.
f - Относительная влажность воздуха - влажноcть воздуха, измеренная на высоте 2 м над землей.
Te - Эффективная температура - температура, которую ощущает одетый по сезону человек в тени. Характеристика душности погоды. При расчете учитывается влияние влажности воздуха и скорости ветра на теплоощущения человека.
Tes - Эффективная температура на солнце - температура, которую ощущает человек, с поправкой на солнечный нагрев. Характеристика знойности погоды. Зависит от высоты солнца над горизонтом, облачности и скорости ветра. Ночью, в пасмурную погоду, а также при ветре 12 м/с и более поправка равна нулю.
P - Атмосферное давление - приведенное к уровню моря атмосферное давление.
Po - Атмосферное давление - измеренное на уровне метеостанции атмосферное давление.
Tmin - Минимальная температура - минимум температуры воздуха на высоте 2 м над землей.
Tmax - Максимальная температура - максимум температуры воздуха на высоте 2 м над землей.
R - Количество осадков - Количество выпавших осадков за период времени, мм. При наведении курсора мыши на число - период времени, за который выпало указанное количество осадков.
R24 - Количество осадков - Количество выпавших осадков за 24 часа, мм.
S - Снежный покров - Высота снежного покрова, см. При наведении курсора мыши на число - состояние снежного покрова и степень покрытия местности в баллах.